エケクルス彗星

174P/(60558) Echeclus (2015)

English version
Home page
Updated on September 3, 2012

---------------------------------------------------------------------

・ プロフィール

符号 174P/(60558) 2000 EC98
発見日 2000年3月3日
発見光度 21.0等
発見者 J. V. Scotti, A. E. Gleason, J. L. Montani, M. T. Read (Steward Observatory, Kitt Peak)

・ 写真集

・ 軌道要素

The following orbital elements are taken from MPC 79346:

Epoch 2015 Apr. 8.0 TT = JDT 2457120.5
T 2015 Apr. 22.5310 TT                                  MPC
q   5.817064             (2000.0)            P               Q
n   0.0282288      Peri.  162.9331      +0.9155392      +0.4021327
a  10.682547       Node   173.3353      -0.3773158      +0.8661995
e   0.455461       Incl.    4.3437      -0.1393586      +0.2966272
P  34.9
From 322 observations 1979-2012, mean residual 0".5.

・ 星図

・ 光度変化

        H = 9.5  G = 0.15                          [     ,-3400]  (              〜2005年12月30日)
        m1 = -101 + 5 logΔ + 135 log r(t + 4000)  [-3400,-3050]  (2005年12月30日〜2006年12月15日)
        H = 9.5  G = 0.15                          [-3050,-1429]  (2006年12月15日〜2011年 5月24日)
        m1 =  -78 + 5 logΔ + 100 log r(t + 2500)  [-1429,-1115]  (2011年 5月24日〜2012年 4月 2日)
        H = 9.5  G = 0.15                          [-1115,     ]  (2012年 4月 2日〜              )

        ※ 灰色の曲線は、H = 9.5  G = 0.15 の光度曲線です。

---------------------------------------------------------------------

軌道要素はMPCのEphemerides and Orbital Elementsに掲載されたものです。
星図は StellaNavigator Ver.2.0 for Windows (アストロアーツ編著 / アスキー出版局刊) で作成したものです。
光度グラフはComet for Windowsで作成したものです。

---------------------------------------------------------------------

Copyright(C) Seiichi Yoshida (comet@aerith.net). All rights reserved.